Location: Amarillo Post Office Jordan Station
(35.1907°N, 101.9342°W)
Time: 18:04:41
(UTC+00:00)

Cosmos 1943 Rocket - Pass Details

Date: 24 January 2021
Orbit: 810 x 845 km, 71.0° (Epoch: 01 March)

Event Time Altitude Azimuth Distance (km) Brightness Sun altitude
Rises 12:34:19 0° 350° (N) 3,403 5.1 -15.9°
Reaches altitude 10° 12:37:07 10° 1° (N) 2,468 4.5 -15.4°
Maximum altitude 12:41:58 28° 60° (ENE) 1,523 4.1 -14.4°
Drops below altitude 10° 12:46:48 10° 119° (ESE) 2,460 5.9 -13.4°
Sets 12:49:34 0° 131° (SE) 3,390 6.6 -12.9°
